Location: Chervonnoye
(48.6000°N, 34.4000°E)
Time: 20:31:00
(UTC+00:00)

Cosmos 1959 Rocket - Pass Details

Date: 23 November 2020
Orbit: 946 x 998 km, 83.0° (Epoch: 27 January)

Event Time Altitude Azimuth Distance (km) Brightness Sun altitude
Rises 15:48:39 0° 352° (N) 3,722 7.5 -18.4°
Reaches altitude 10° 15:51:13 10° 355° (N) 2,773 6.8 -18.8°
Maximum altitude 15:57:34 68° 78° (ENE) 1,073 4.4 -19.9°
Drops below altitude 10° 16:03:54 10° 162° (SSE) 2,758 6.8 -20.9°
Sets 16:06:26 0° 164° (SSE) 3,701 7.5 -21.3°
